[[{"header":{"parameterUnit":"m.s-1","parameterCategory":1,"la1":30.2991,"la2":30.254,"lo1":-89.0895,"lo2":-89.0444,"dy":0.0017,"dx":0.0017,"nx":28,"ny":28,"refTime":"2024-08-05T03:00:00:Z","depth":0,"parameterNumber":2,"parameterNumberName":"U-component_of_WINDS"},"data":[0,0,0,0,0,0,0,0,0,0,0,0,0,0,0,0,0,0,0,0,0,0,0,0,0,0,0,0,0,0,0,0,0,0,0,0,0,0,0,0,0,0,0,0,0,0,0,0,0,0,0,0,0,0,0,0,0,0,2.7576,2.7576,0,2.7617,2.7618,2.7618,2.7506,2.7502,2.7499,2.7495,2.7544,2.7548,2.7553,0,0,0,0,0,0,0,0,0,0,0,0,0,2.7407,2.7411,2.7576,2.7576,2.7577,2.7617,2.7618,2.7618,2.7506,2.7502,2.7498,2.7494,2.7543,2.7548,2.7553,0,0,0,0,0,0,0,0,0,0,0,0,0,2.7468,2.7412,2.7576,2.7526,2.7521,2.7617,2.7618,2.7618,2.7507,2.7502,2.7496,2.7492,2.7541,2.7547,2.7554,2.7702,0,0,2.7575,2.7578,0,0,0,0,0,0,0,0,2.7464,2.7474,2.7532,2.7529,2.7525,2.7551,2.7576,2.7647,2.7508,2.7513,2.7495,2.7489,2.7551,2.7557,2.7576,2.7704,2.7706,2.7576,2.758,2.7583,2.7585,0,0,0,0,0,0,0,2.746,2.7472,2.7592,2.7533,2.7529,2.7503,2.7506,2.7589,2.7561,2.7512,2.7504,2.751,2.7548,2.757,2.7576,2.7707,2.7576,2.7582,2.7586,2.7589,2.7963,2.7969,0,0,0,0,0,0,2.7462,2.7469,2.7591,2.7593,2.7481,2.7511,2.7514,2.7548,2.756,2.7556,2.7514,2.7505,2.7561,2.7569,2.7578,2.7755,2.7583,2.7589,2.7593,2.7957,2.7964,2.7971,0,0,0,0,0,0,2.7458,2.7474,2.7589,2.7529,2.7542,2.7519,2.7558,2.7551,2.7573,2.7562,2.7557,2.7542,2.7557,2.7568,2.7672,2.7755,2.7592,2.7599,2.7951,2.796,2.7968,2.8109,0,0,0,0,0,0,2.7454,2.7473,2.7527,2.7531,2.7545,2.7682,2.7563,2.7556,2.7585,2.7572,2.7586,2.7583,2.7554,2.7663,2.7679,2.7761,2.7604,2.7943,2.7955,2.7965,2.8097,2.8121,2.8142,0,0,0,0,0,2.7448,2.7566,2.753,2.7546,2.7612,2.7686,2.7695,2.7657,2.7591,2.7647,2.764,2.7583,2.7743,2.7674,2.7692,2.7778,2.7938,2.7951,2.7964,2.8086,2.8116,2.8142,0,0,0,0,0,0,2.7574,2.7565,2.7526,2.7647,2.7668,2.7667,2.7736,2.7689,2.773,2.7717,2.767,2.7674,2.7789,2.7793,2.7717,2.7923,2.783,2.7847,2.7917,2.7945,2.7967,2.7965,2.761,0,0,0,0,0,2.7615,2.7674,2.7664,2.7772,2.7784,2.7759,2.779,2.7758,2.7779,2.7788,2.7788,2.7813,2.7868,2.7906,2.7957,2.8096,2.81,2.8164,2.8186,2.8205,2.8222,2.83,2.8329,2.8014,2.8014,2.8014,0,0,2.7702,2.7704,2.7745,2.7797,2.781,2.7875,2.7767,2.7839,2.7888,2.7799,2.7898,2.79,2.7924,2.8048,2.8102,2.8055,2.8309,2.8222,2.8237,2.8243,2.8316,2.8346,2.8373,2.8023,2.8021,2.802,0,0,2.7894,2.79,2.7992,2.8007,2.8027,2.801,2.8032,2.8039,2.8036,2.8134,2.807,2.8128,2.8224,2.8245,2.8269,2.8471,2.8422,2.8489,2.8609,2.8686,2.8711,2.8733,2.8809,2.8836,2.8505,2.8505,2.8506,0,2.8,2.8092,2.8046,2.8124,2.8151,2.8072,2.8168,2.8185,2.8222,2.8244,2.8189,2.8311,2.8321,2.845,2.85,2.852,2.8547,2.8488,2.871,2.8732,2.8752,2.8824,2.8852,2.8514,2.8513,2.8512,2.8511,0,2.8224,2.829,2.8362,2.8399,2.8434,2.852,2.849,2.8531,2.8498,2.8487,2.859,2.86,2.8653,2.868,2.8648,2.8807,2.8777,2.8718,2.8623,2.8791,2.8858,2.8885,2.8526,2.8523,2.852,2.8518,0,0,2.8496,2.8507,2.8535,2.8552,2.8569,2.8621,2.8705,2.8755,2.8793,2.8821,2.8893,2.8978,2.8923,2.895,2.892,2.8987,2.9152,2.8919,2.8919,2.8965,2.9331,2.9379,2.9411,2.9117,2.9122,2.9126,2.933,0,2.8688,2.8831,2.8793,2.8937,2.8999,2.8926,2.9,2.9021,2.9014,2.9068,2.906,2.9122,2.9043,2.906,2.9122,2.9118,2.9225,2.9102,2.9188,2.9191,2.9187,2.9445,2.9495,2.9687,2.9356,2.936,2.9363,0,2.8931,2.8969,2.9118,2.9128,2.9153,2.922,2.9265,2.9316,2.9339,2.9329,2.936,2.9318,2.9404,2.9307,2.9428,2.9346,2.9378,2.9382,2.9389,2.9398,2.929,2.9465,2.9747,2.9777,2.9404,2.94,2.9398,0,2.912,2.9207,2.9309,2.9325,2.9338,2.9388,2.9396,2.9413,2.9447,2.9487,2.9509,2.9559,2.9587,2.9628,2.9602,2.9533,2.9729,2.9629,2.9727,2.9728,2.9774,2.9772,3.0069,2.979,2.9789,2.9789,2.9788,0,2.934,2.9435,2.9394,2.9457,2.9563,2.952,2.9627,2.9627,2.9644,2.9708,2.9647,2.971,2.9669,2.9729,2.9708,2.9814,2.9826,2.9824,2.9818,2.9831,2.9832,2.9854,2.9841,2.9796,2.9795,2.9793,2.9792,0,2.9569,2.9545,2.9652,2.9655,2.9659,2.9737,2.9742,2.9802,2.979,2.9873,2.9889,2.9872,2.994,2.9916,2.9988,2.9975,3.0111,3.0086,3.0103,3.0098,3.0199,3.0192,3.0523,3.0566,3.0257,3.026,3.0262,0,2.9713,2.9785,2.9796,2.9834,2.9847,2.9908,2.9942,2.9904,2.9942,2.9975,3.0033,3.0094,3.0142,3.0254,3.025,3.0306,3.0284,3.0396,3.0292,3.0304,3.029,3.0288,3.0297,3.0418,3.0422,3.0425,3.0427,0,2.9972,2.9957,3.0007,3.0055,3.0098,3.0134,3.0164,3.02,3.0163,3.021,3.0277,3.0314,3.0388,3.0452,3.0503,3.0514,3.0467,3.0459,3.0486,3.0502,3.051,3.0511,3.0164,3.0453,3.045,3.0448,3.0447,3.0446,3.0165,3.0227,3.0246,3.0305,3.0324,3.0355,3.0413,3.0409,3.0463,3.052,3.0494,3.0574,3.0598,3.0661,3.0679,3.0743,3.07,3.0737,3.0747,3.0758,3.0773,3.0498,3.0752,3.0751,3.075,3.0749,3.0749,0,3.0424,3.0433,3.0488,3.0533,3.0581,3.0529,3.0561,3.0606,3.0676,3.0702,3.075,3.083,3.0892,3.0893,3.0951,3.1002,3.0982,3.1019,3.1017,3.1021,3.0806,3.0779,3.1035,3.1035,3.1035,3.1035,3.1035,3.1035,3.0565,3.0668,3.0656,3.0769,3.0777,3.0853,3.0877,3.0907,3.0927,3.1019,3.1069,3.1069,3.1086,3.1146,3.1202,3.12,3.1227,3.1273,3.1265,3.1064,3.1036,3.1009,3.0983,3.1278,3.1279,3.1475,3.1477,3.1478]},{"header":{"parameterUnit":"m.s-1","parameterCategory":1,"la1":30.2991,"la2":30.254,"lo1":-89.0895,"lo2":-89.0444,"dy":0.0017,"dx":0.0017,"nx":28,"ny":28,"refTime":"2024-08-05T03:00:00:Z","depth":0,"parameterNumber":3,"parameterNumberName":"V-component_of_WINDS"},"data":[0,0,0,0,0,0,0,0,0,0,0,0,0,0,0,0,0,0,0,0,0,0,0,0,0,0,0,0,0,0,0,0,0,0,0,0,0,0,0,0,0,0,0,0,0,0,0,0,0,0,0,0,0,0,0,0,0,0,-0.4652,-0.465,0,-0.4451,-0.4449,-0.4447,-0.439,-0.4391,-0.4392,-0.4393,-0.4177,-0.417,-0.4163,0,0,0,0,0,0,0,0,0,0,0,0,0,-0.4977,-0.4971,-0.4652,-0.4649,-0.4647,-0.4452,-0.4449,-0.4446,-0.4389,-0.4391,-0.4392,-0.4394,-0.4179,-0.4171,-0.4163,0,0,0,0,0,0,0,0,0,0,0,0,0,-0.4812,-0.4969,-0.4652,-0.4595,-0.4588,-0.4452,-0.4449,-0.4445,-0.4389,-0.4391,-0.4393,-0.4394,-0.4182,-0.4172,-0.4162,-0.4064,0,0,-0.413,-0.4126,0,0,0,0,0,0,0,0,-0.4821,-0.48,-0.4606,-0.4599,-0.4591,-0.4448,-0.4484,-0.4317,-0.4389,-0.4464,-0.4393,-0.4395,-0.4265,-0.4248,-0.4206,-0.4054,-0.4045,-0.4129,-0.4123,-0.4119,-0.4116,0,0,0,0,0,0,0,-0.4833,-0.4808,-0.4572,-0.4604,-0.4594,-0.4577,-0.4555,-0.4452,-0.4357,-0.4458,-0.4453,-0.4431,-0.4261,-0.4216,-0.42,-0.4042,-0.413,-0.4121,-0.4114,-0.411,-0.3799,-0.3797,0,0,0,0,0,0,-0.4855,-0.4818,-0.4578,-0.4566,-0.4713,-0.457,-0.4546,-0.4492,-0.4358,-0.434,-0.443,-0.4429,-0.4233,-0.4212,-0.4193,-0.4069,-0.4119,-0.4109,-0.4103,-0.3801,-0.3799,-0.3796,0,0,0,0,0,0,-0.4862,-0.4834,-0.4587,-0.4691,-0.4658,-0.4562,-0.4502,-0.4487,-0.4442,-0.4337,-0.4319,-0.4402,-0.4233,-0.4207,-0.4097,-0.4061,-0.4105,-0.4095,-0.3804,-0.38,-0.3797,-0.3822,0,0,0,0,0,0,-0.4872,-0.4837,-0.4801,-0.4691,-0.4653,-0.4497,-0.45,-0.4482,-0.4426,-0.4423,-0.4306,-0.4288,-0.4232,-0.4113,-0.4087,-0.4047,-0.4087,-0.3806,-0.3802,-0.3798,-0.3824,-0.382,-0.3816,0,0,0,0,0,-0.4884,-0.4814,-0.48,-0.4771,-0.4606,-0.4495,-0.4473,-0.4414,-0.4423,-0.4385,-0.4317,-0.4292,-0.407,-0.4102,-0.4073,-0.4029,-0.3808,-0.3803,-0.3799,-0.3825,-0.382,-0.3817,0,0,0,0,0,0,-0.4918,-0.4798,-0.4781,-0.4674,-0.4596,-0.4486,-0.4436,-0.4411,-0.4325,-0.4325,-0.4252,-0.4226,-0.4121,-0.4064,-0.4102,-0.3928,-0.3938,-0.3927,-0.3968,-0.3963,-0.3959,-0.3974,-0.4079,0,0,0,0,0,-0.4915,-0.4838,-0.4736,-0.4651,-0.4613,-0.4532,-0.4481,-0.4442,-0.4357,-0.4322,-0.4247,-0.4162,-0.4073,-0.4015,-0.3927,-0.3816,-0.3789,-0.3772,-0.3769,-0.3766,-0.3756,-0.3692,-0.3683,-0.3781,-0.3781,-0.3781,0,0,-0.4903,-0.4829,-0.4784,-0.4656,-0.4591,-0.451,-0.4504,-0.4418,-0.4356,-0.4308,-0.42,-0.4142,-0.4042,-0.3932,-0.3879,-0.3881,-0.3724,-0.376,-0.3759,-0.375,-0.3686,-0.3677,-0.3669,-0.3777,-0.3778,-0.3778,0,0,-0.4842,-0.4779,-0.4701,-0.4637,-0.4541,-0.4487,-0.4469,-0.4363,-0.4324,-0.4216,-0.4178,-0.4102,-0.3951,-0.3881,-0.3826,-0.3742,-0.3714,-0.3715,-0.3694,-0.3633,-0.3625,-0.3618,-0.3585,-0.3575,-0.3706,-0.3706,-0.3706,0,-0.4839,-0.472,-0.4663,-0.4581,-0.4525,-0.4482,-0.4401,-0.434,-0.4218,-0.4179,-0.4185,-0.3995,-0.3924,-0.3796,-0.3776,-0.3734,-0.3708,-0.3726,-0.3632,-0.3624,-0.3616,-0.3584,-0.3572,-0.3707,-0.3707,-0.3707,-0.3707,0,-0.4721,-0.4638,-0.4586,-0.4474,-0.4412,-0.4331,-0.426,-0.4203,-0.4171,-0.4117,-0.4006,-0.3922,-0.3816,-0.3783,-0.3749,-0.365,-0.3654,-0.3647,-0.3655,-0.3608,-0.3577,-0.3565,-0.3708,-0.3708,-0.3707,-0.3707,0,0,-0.4671,-0.4532,-0.4514,-0.4462,-0.4354,-0.4287,-0.4203,-0.4104,-0.4056,-0.3974,-0.39,-0.3774,-0.3767,-0.3705,-0.3663,-0.3609,-0.3546,-0.3608,-0.3604,-0.3597,-0.3429,-0.3433,-0.342,-0.3529,-0.3526,-0.3524,-0.3437,0,-0.4594,-0.4447,-0.4395,-0.4271,-0.4193,-0.4153,-0.4079,-0.4003,-0.395,-0.3874,-0.3814,-0.3726,-0.3725,-0.3687,-0.3632,-0.3565,-0.351,-0.3571,-0.3455,-0.3451,-0.3479,-0.3404,-0.3408,-0.3329,-0.3424,-0.3422,-0.3421,0,-0.4484,-0.4405,-0.4275,-0.4177,-0.4142,-0.4078,-0.3982,-0.3911,-0.3824,-0.3789,-0.3721,-0.3684,-0.3591,-0.3609,-0.3479,-0.3522,-0.3471,-0.3431,-0.3427,-0.3411,-0.3431,-0.3383,-0.3303,-0.329,-0.3401,-0.3403,-0.3404,0,-0.4459,-0.4319,-0.4224,-0.4181,-0.4065,-0.402,-0.3969,-0.3884,-0.3828,-0.3744,-0.3706,-0.3612,-0.3559,-0.3485,-0.3422,-0.3441,-0.3297,-0.331,-0.3263,-0.3264,-0.3231,-0.3233,-0.3139,-0.3204,-0.3205,-0.3205,-0.3205,0,-0.4376,-0.4297,-0.4211,-0.4151,-0.4062,-0.4002,-0.3914,-0.386,-0.3785,-0.3712,-0.3671,-0.3602,-0.3525,-0.3446,-0.3396,-0.3295,-0.3272,-0.3239,-0.3226,-0.3241,-0.3245,-0.3204,-0.3206,-0.3202,-0.3202,-0.3203,-0.3204,0,-0.4331,-0.427,-0.4163,-0.4064,-0.4037,-0.3975,-0.3888,-0.3827,-0.3775,-0.3683,-0.3658,-0.3574,-0.3479,-0.341,-0.3286,-0.3253,-0.3144,-0.3132,-0.3174,-0.3167,-0.3124,-0.3128,-0.2996,-0.2975,-0.3059,-0.3058,-0.3058,0,-0.4281,-0.422,-0.4116,-0.4066,-0.4017,-0.3936,-0.388,-0.382,-0.3762,-0.3659,-0.361,-0.3514,-0.3433,-0.3282,-0.3208,-0.3113,-0.3097,-0.3058,-0.3082,-0.3099,-0.3093,-0.3096,-0.3088,-0.3053,-0.3052,-0.3052,-0.3051,0,-0.4197,-0.4171,-0.4094,-0.4006,-0.3941,-0.3868,-0.3794,-0.3755,-0.3681,-0.3618,-0.3522,-0.346,-0.3336,-0.3239,-0.3138,-0.3082,-0.3052,-0.3046,-0.3029,-0.3041,-0.3067,-0.305,-0.3162,-0.3047,-0.3048,-0.3048,-0.3048,-0.3048,-0.4146,-0.409,-0.4009,-0.3923,-0.3863,-0.3795,-0.3734,-0.3675,-0.3596,-0.3493,-0.3462,-0.3362,-0.3276,-0.3137,-0.308,-0.2999,-0.3,-0.2977,-0.297,-0.2965,-0.2964,-0.3084,-0.2981,-0.2981,-0.2981,-0.2981,-0.2981,0,-0.4058,-0.4005,-0.3928,-0.3828,-0.376,-0.3746,-0.3663,-0.3606,-0.3521,-0.3445,-0.3368,-0.3258,-0.3164,-0.3085,-0.2987,-0.2938,-0.2922,-0.2914,-0.2915,-0.2902,-0.297,-0.2993,-0.2928,-0.2928,-0.2928,-0.2928,-0.2928,-0.2928,-0.4004,-0.3909,-0.3873,-0.3746,-0.3692,-0.3598,-0.3552,-0.3489,-0.3428,-0.3308,-0.3232,-0.3183,-0.3104,-0.3001,-0.2914,-0.2893,-0.2857,-0.2852,-0.2827,-0.2891,-0.2897,-0.2903,-0.2924,-0.2845,-0.2845,-0.2764,-0.2764,-0.2763]}]]